カタログに戻る

STARLINK-5534

運用中通信VLEO
NORAD 56477·PAYLOAD·🇺🇸 United States

打ち上げ May 10, 2023 から Vandenberg Space Force Base

Loading…

次のパス (今後24時間)

TLE

最新Source: CelesTrak SupGP

元期: Sep 15, 2026, 03:12 UTC

1 56477C 23064AF  26258.13381944  .00122250  00000+0  10243-1 0  2580
2 56477  70.0017   6.7243 0003232 266.2948 255.0046 14.98275818    11

AllMySatでSTARLINK-5534をリアルタイム追跡

Download on the App Store